[[{"header":{"parameterUnit":"m.s-1","parameterCategory":1,"la1":30.2991,"la2":30.254,"lo1":-89.0895,"lo2":-89.0444,"dy":0.0017,"dx":0.0017,"nx":28,"ny":28,"refTime":"2024-12-22T09:00:00:Z","depth":0,"parameterNumber":2,"parameterNumberName":"U-component_of_WINDS"},"data":[0,0,0,0,0,0,0,0,0,0,0,0,0,0,0,0,0,0,0,0,0,0,0,0,0,0,0,0,0,0,0,0,0,0,0,0,0,0,0,0,0,0,0,0,0,0,0,0,0,0,0,0,0,0,0,0,0,0,-2.7131,-2.7132,0,-2.7186,-2.7187,-2.7187,-2.7055,-2.7051,-2.7047,-2.7043,-2.7101,-2.7106,-2.7112,0,0,0,0,0,0,0,0,0,0,0,0,0,-2.6914,-2.6919,-2.7131,-2.7132,-2.7133,-2.7186,-2.7187,-2.7187,-2.7056,-2.7051,-2.7046,-2.7041,-2.7099,-2.7106,-2.7112,0,0,0,0,0,0,0,0,0,0,0,0,0,-2.6993,-2.692,-2.7131,-2.7073,-2.7069,-2.7186,-2.7187,-2.7188,-2.7057,-2.705,-2.7044,-2.7038,-2.7097,-2.7105,-2.7113,-2.729,0,0,-2.7138,-2.7142,0,0,0,0,0,0,0,0,-2.6988,-2.7001,-2.7081,-2.7078,-2.7073,-2.7107,-2.7131,-2.7222,-2.7058,-2.7061,-2.7043,-2.7035,-2.7108,-2.7115,-2.7139,-2.7292,-2.7295,-2.7139,-2.7144,-2.7147,-2.715,0,0,0,0,0,0,0,-2.6983,-2.6998,-2.7153,-2.7083,-2.7077,-2.7045,-2.7049,-2.7148,-2.712,-2.7061,-2.7051,-2.7059,-2.7105,-2.7132,-2.714,-2.7296,-2.7139,-2.7146,-2.7151,-2.7154,-2.7596,-2.7602,0,0,0,0,0,0,-2.6985,-2.6994,-2.7151,-2.7155,-2.7014,-2.7054,-2.7059,-2.7103,-2.7118,-2.7114,-2.7065,-2.7053,-2.7121,-2.713,-2.7141,-2.735,-2.7147,-2.7155,-2.716,-2.7589,-2.7597,-2.7605,0,0,0,0,0,0,-2.6981,-2.7,-2.7149,-2.7072,-2.7088,-2.7064,-2.7115,-2.7107,-2.7134,-2.7121,-2.7116,-2.7098,-2.7116,-2.713,-2.7254,-2.735,-2.7159,-2.7166,-2.7581,-2.7592,-2.7601,-2.7768,0,0,0,0,0,0,-2.6975,-2.6999,-2.7066,-2.7074,-2.7093,-2.7261,-2.7121,-2.7112,-2.7148,-2.7133,-2.715,-2.7147,-2.7112,-2.7242,-2.7262,-2.7358,-2.7173,-2.7572,-2.7586,-2.7598,-2.7753,-2.7782,-2.7807,0,0,0,0,0,-2.6968,-2.7111,-2.707,-2.709,-2.7176,-2.7267,-2.7277,-2.7234,-2.7156,-2.7223,-2.7215,-2.7147,-2.7335,-2.7256,-2.7277,-2.7377,-2.7566,-2.7582,-2.7597,-2.7741,-2.7777,-2.7806,0,0,0,0,0,0,-2.7117,-2.7112,-2.7066,-2.7216,-2.7243,-2.7244,-2.7328,-2.7272,-2.7322,-2.7306,-2.725,-2.7255,-2.739,-2.7395,-2.7306,-2.7548,-2.7438,-2.7458,-2.754,-2.7574,-2.76,-2.7597,-2.7179,0,0,0,0,0,-2.7167,-2.724,-2.7232,-2.7366,-2.7381,-2.7352,-2.739,-2.7354,-2.7379,-2.739,-2.7391,-2.7419,-2.7484,-2.7528,-2.7588,-2.7752,-2.7755,-2.7831,-2.7858,-2.788,-2.7899,-2.7986,-2.8021,-2.7655,-2.7655,-2.7655,0,0,-2.7272,-2.7278,-2.7328,-2.7396,-2.7412,-2.749,-2.7363,-2.7451,-2.7508,-2.7404,-2.7521,-2.7522,-2.7549,-2.7695,-2.7758,-2.7703,-2.8,-2.7899,-2.7917,-2.7924,-2.8006,-2.8041,-2.8071,-2.7666,-2.7664,-2.7662,0,0,-2.7503,-2.7515,-2.7628,-2.7646,-2.7672,-2.7651,-2.7678,-2.7688,-2.7685,-2.7801,-2.7724,-2.7791,-2.7905,-2.7927,-2.7954,-2.8192,-2.8132,-2.8213,-2.8353,-2.844,-2.8468,-2.8494,-2.858,-2.8612,-2.8231,-2.8231,-2.8232,0,-2.7631,-2.7745,-2.7693,-2.7786,-2.7819,-2.7725,-2.784,-2.786,-2.7905,-2.7929,-2.7866,-2.8006,-2.8018,-2.8167,-2.8225,-2.8249,-2.8279,-2.8212,-2.8468,-2.8493,-2.8516,-2.8598,-2.863,-2.8241,-2.824,-2.8239,-2.8238,0,-2.7902,-2.7982,-2.807,-2.8114,-2.8156,-2.8259,-2.8223,-2.8271,-2.8231,-2.8217,-2.8337,-2.8347,-2.8407,-2.8439,-2.84,-2.8583,-2.8548,-2.8477,-2.8366,-2.8562,-2.8638,-2.8668,-2.8255,-2.8252,-2.8249,-2.8247,0,0,-2.8232,-2.8244,-2.8278,-2.8296,-2.8317,-2.8378,-2.8477,-2.8534,-2.8578,-2.861,-2.8693,-2.879,-2.8724,-2.8754,-2.8717,-2.8793,-2.8982,-2.8713,-2.8712,-2.8764,-2.9185,-2.9239,-2.9277,-2.894,-2.8946,-2.8951,-2.9183,0,-2.8462,-2.8631,-2.8587,-2.8756,-2.883,-2.8741,-2.8827,-2.8849,-2.8838,-2.8899,-2.8887,-2.8958,-2.8865,-2.8883,-2.8953,-2.8944,-2.9066,-2.8926,-2.9018,-2.9022,-2.9017,-2.9316,-2.9374,-2.9593,-2.9212,-2.9217,-2.9221,0,-2.8754,-2.8797,-2.8974,-2.8982,-2.9011,-2.9089,-2.9138,-2.9197,-2.922,-2.9207,-2.924,-2.9187,-2.9284,-2.917,-2.9304,-2.921,-2.9244,-2.9245,-2.9252,-2.9262,-2.9135,-2.9335,-2.9662,-2.9696,-2.9267,-2.9263,-2.926,0,-2.898,-2.9082,-2.9201,-2.9219,-2.9231,-2.9288,-2.9295,-2.9312,-2.9349,-2.9391,-2.9415,-2.9468,-2.9499,-2.9541,-2.9504,-2.9424,-2.9645,-2.9527,-2.9638,-2.9639,-2.9691,-2.9689,-3.003,-2.9709,-2.9709,-2.9708,-2.9707,0,-2.9243,-2.9355,-2.9302,-2.9376,-2.9498,-2.9445,-2.9568,-2.9565,-2.958,-2.9652,-2.9577,-2.9646,-2.9592,-2.9656,-2.9628,-2.9744,-2.9757,-2.975,-2.9742,-2.9758,-2.976,-2.9782,-2.9767,-2.9717,-2.9715,-2.9713,-2.9711,0,-2.9517,-2.9486,-2.961,-2.961,-2.9612,-2.9703,-2.9703,-2.9771,-2.9753,-2.9845,-2.9863,-2.9837,-2.9908,-2.9875,-2.995,-2.993,-3.008,-3.005,-3.0073,-3.0066,-3.0179,-3.017,-3.0549,-3.0596,-3.0243,-3.0247,-3.025,0,-2.9689,-2.9773,-2.9781,-2.9823,-2.9836,-2.9905,-2.9942,-2.9892,-2.9934,-2.9965,-3.003,-3.0094,-3.0144,-3.0262,-3.025,-3.0306,-3.0278,-3.0407,-3.0287,-3.0301,-3.0283,-3.0279,-3.0288,-3.0433,-3.0437,-3.044,-3.0443,0,-2.9997,-2.9977,-3.0033,-3.0085,-3.0131,-3.0169,-3.02,-3.0239,-3.019,-3.0241,-3.0312,-3.0351,-3.0426,-3.0492,-3.0541,-3.0548,-3.0489,-3.048,-3.0509,-3.0528,-3.0539,-3.0536,-3.0141,-3.0473,-3.047,-3.0467,-3.0466,-3.0465,-3.0226,-3.0297,-3.0314,-3.0379,-3.0397,-3.0428,-3.0492,-3.0482,-3.054,-3.0598,-3.0564,-3.0648,-3.0667,-3.0727,-3.0743,-3.0808,-3.0757,-3.0799,-3.081,-3.0821,-3.0837,-3.0526,-3.0816,-3.0815,-3.0815,-3.0814,-3.0813,0,-3.0532,-3.0538,-3.0598,-3.0644,-3.0696,-3.0632,-3.0663,-3.0711,-3.0786,-3.0808,-3.0858,-3.094,-3.1003,-3.0995,-3.1052,-3.1106,-3.108,-3.1123,-3.112,-3.1123,-3.0879,-3.0849,-3.1143,-3.1143,-3.1143,-3.1143,-3.1143,-3.1143,-3.0698,-3.0814,-3.0796,-3.092,-3.0925,-3.1006,-3.103,-3.1058,-3.1076,-3.1171,-3.1222,-3.1216,-3.1226,-3.1283,-3.1338,-3.1333,-3.1359,-3.1413,-3.1399,-3.1172,-3.114,-3.1109,-3.108,-3.1418,-3.1419,-3.1637,-3.1639,-3.1641]},{"header":{"parameterUnit":"m.s-1","parameterCategory":1,"la1":30.2991,"la2":30.254,"lo1":-89.0895,"lo2":-89.0444,"dy":0.0017,"dx":0.0017,"nx":28,"ny":28,"refTime":"2024-12-22T09:00:00:Z","depth":0,"parameterNumber":3,"parameterNumberName":"V-component_of_WINDS"},"data":[0,0,0,0,0,0,0,0,0,0,0,0,0,0,0,0,0,0,0,0,0,0,0,0,0,0,0,0,0,0,0,0,0,0,0,0,0,0,0,0,0,0,0,0,0,0,0,0,0,0,0,0,0,0,0,0,0,0,-4.8679,-4.868,0,-4.8763,-4.8764,-4.8765,-4.8705,-4.8702,-4.87,-4.8697,-4.878,-4.8784,-4.8789,0,0,0,0,0,0,0,0,0,0,0,0,0,-4.846,-4.8464,-4.8679,-4.868,-4.8681,-4.8763,-4.8764,-4.8766,-4.8706,-4.8702,-4.8699,-4.8696,-4.8778,-4.8784,-4.8789,0,0,0,0,0,0,0,0,0,0,0,0,0,-4.8551,-4.8465,-4.8679,-4.8661,-4.866,-4.8763,-4.8765,-4.8766,-4.8706,-4.8702,-4.8698,-4.8695,-4.8776,-4.8783,-4.879,-4.8914,0,0,-4.8812,-4.8815,0,0,0,0,0,0,0,0,-4.8545,-4.8559,-4.8663,-4.8662,-4.8662,-4.872,-4.8717,-4.8815,-4.8707,-4.8689,-4.8697,-4.8693,-4.8763,-4.8771,-4.8795,-4.8917,-4.8921,-4.8812,-4.8816,-4.8819,-4.8821,0,0,0,0,0,0,0,-4.8539,-4.8555,-4.8712,-4.8664,-4.8664,-4.8647,-4.8656,-4.8736,-4.8747,-4.869,-4.8686,-4.8697,-4.8762,-4.8789,-4.8797,-4.8922,-4.8812,-4.8818,-4.8823,-4.8825,-4.9147,-4.9151,0,0,0,0,0,0,-4.8535,-4.855,-4.8709,-4.8715,-4.8593,-4.8654,-4.8664,-4.8705,-4.8746,-4.8748,-4.87,-4.8694,-4.8778,-4.8788,-4.8799,-4.8945,-4.8819,-4.8826,-4.883,-4.9143,-4.9148,-4.9153,0,0,0,0,0,0,-4.8531,-4.855,-4.8706,-4.8631,-4.865,-4.8662,-4.8709,-4.8709,-4.8736,-4.8754,-4.8755,-4.8726,-4.8776,-4.8789,-4.8885,-4.8947,-4.8829,-4.8836,-4.9138,-4.9145,-4.9151,-4.9238,0,0,0,0,0,0,-4.8525,-4.8549,-4.8597,-4.8633,-4.8654,-4.8793,-4.8713,-4.8713,-4.8748,-4.8741,-4.8778,-4.878,-4.8774,-4.8875,-4.8892,-4.8955,-4.8841,-4.9132,-4.9141,-4.9148,-4.923,-4.9247,-4.9262,0,0,0,0,0,-4.8517,-4.8618,-4.86,-4.862,-4.8715,-4.8796,-4.8808,-4.88,-4.8754,-4.8801,-4.8813,-4.8779,-4.8938,-4.8886,-4.8904,-4.897,-4.9128,-4.9138,-4.9148,-4.9223,-4.9244,-4.9261,0,0,0,0,0,0,-4.8589,-4.8623,-4.8603,-4.8719,-4.8755,-4.8786,-4.8846,-4.8822,-4.8871,-4.8862,-4.8848,-4.8857,-4.8957,-4.8973,-4.8914,-4.909,-4.9025,-4.9039,-4.9076,-4.9096,-4.9112,-4.9105,-4.8847,0,0,0,0,0,-4.8618,-4.8683,-4.8708,-4.8808,-4.8827,-4.8834,-4.8869,-4.8859,-4.8896,-4.891,-4.8929,-4.8964,-4.9021,-4.906,-4.9114,-4.9232,-4.9238,-4.9286,-4.9302,-4.9315,-4.9327,-4.9388,-4.9409,-4.9185,-4.9185,-4.9185,0,0,-4.8679,-4.8706,-4.8747,-4.8823,-4.885,-4.8915,-4.8847,-4.892,-4.8967,-4.8921,-4.9013,-4.9027,-4.9065,-4.9173,-4.9221,-4.9189,-4.939,-4.9327,-4.9337,-4.9342,-4.94,-4.9422,-4.944,-4.9192,-4.919,-4.9189,0,0,-4.8824,-4.8851,-4.8937,-4.8965,-4.9007,-4.9011,-4.9031,-4.9066,-4.9074,-4.9166,-4.9132,-4.9187,-4.9287,-4.9315,-4.9343,-4.9497,-4.9467,-4.9515,-4.9597,-4.9657,-4.9675,-4.969,-4.9744,-4.9763,-4.9527,-4.9527,-4.9527,0,-4.8894,-4.8993,-4.8983,-4.9058,-4.9091,-4.9053,-4.9138,-4.9166,-4.9223,-4.9246,-4.921,-4.9333,-4.9356,-4.9469,-4.9506,-4.953,-4.9551,-4.951,-4.9673,-4.9689,-4.9703,-4.9754,-4.9774,-4.9532,-4.9532,-4.9531,-4.953,0,-4.9076,-4.9145,-4.9209,-4.9266,-4.9306,-4.9386,-4.9386,-4.9428,-4.9414,-4.9421,-4.9513,-4.954,-4.9598,-4.9624,-4.9611,-4.9734,-4.9713,-4.9676,-4.961,-4.973,-4.9777,-4.9797,-4.954,-4.9538,-4.9536,-4.9535,0,0,-4.9269,-4.9319,-4.9342,-4.9367,-4.941,-4.9462,-4.9539,-4.9596,-4.9632,-4.9672,-4.9734,-4.9819,-4.9785,-4.9816,-4.9805,-4.9859,-4.9976,-4.9814,-4.9815,-4.9842,-5.0111,-5.0138,-5.0161,-4.9957,-4.9961,-4.9964,-5.0108,0,-4.9414,-4.955,-4.9543,-4.9669,-4.9731,-4.9695,-4.9761,-4.9794,-4.9802,-4.9854,-4.9862,-4.9922,-4.9872,-4.9891,-4.9942,-4.9951,-5.003,-4.9941,-5.0013,-5.0016,-5.0004,-5.0186,-5.0215,-5.035,-5.0126,-5.0129,-5.0131,0,-4.9603,-4.965,-4.9783,-4.9816,-4.9841,-4.9902,-4.9953,-5.0004,-5.0039,-5.0041,-5.0075,-5.0056,-5.0131,-5.0065,-5.0167,-5.0106,-5.0135,-5.0144,-5.0149,-5.0155,-5.008,-5.0195,-5.0392,-5.0412,-5.0161,-5.0158,-5.0156,0,-4.9728,-4.9825,-4.9917,-4.9939,-4.9979,-5.0022,-5.0041,-5.0072,-5.0107,-5.0151,-5.0173,-5.0225,-5.0253,-5.0293,-5.0287,-5.0239,-5.039,-5.0324,-5.0392,-5.0392,-5.0425,-5.0423,-5.0628,-5.0446,-5.0446,-5.0445,-5.0445,0,-4.9891,-4.9973,-4.9973,-5.003,-5.012,-5.0109,-5.0198,-5.0212,-5.024,-5.0296,-5.0268,-5.0321,-5.0311,-5.0363,-5.0359,-5.0443,-5.0457,-5.0459,-5.0456,-5.0461,-5.046,-5.0479,-5.0469,-5.045,-5.0449,-5.0448,-5.0447,0,-5.0046,-5.005,-5.0147,-5.0177,-5.0186,-5.0251,-5.0276,-5.0328,-5.0333,-5.0405,-5.0421,-5.0429,-5.0489,-5.0487,-5.0556,-5.0552,-5.0655,-5.0643,-5.0644,-5.0641,-5.0709,-5.0702,-5.0933,-5.0962,-5.0762,-5.0763,-5.0765,0,-5.0149,-5.0212,-5.0249,-5.0285,-5.0306,-5.0366,-5.0401,-5.0392,-5.043,-5.0474,-5.052,-5.0578,-5.0624,-5.0721,-5.0732,-5.0783,-5.0771,-5.0848,-5.0778,-5.078,-5.077,-5.0766,-5.0771,-5.0861,-5.0864,-5.0865,-5.0867,0,-5.0332,-5.033,-5.0383,-5.0436,-5.0479,-5.052,-5.0558,-5.0589,-5.0584,-5.0627,-5.0689,-5.0724,-5.0794,-5.0851,-5.09,-5.0917,-5.0891,-5.0889,-5.0907,-5.0912,-5.0909,-5.091,-5.068,-5.0883,-5.0882,-5.0881,-5.088,-5.0879,-5.0463,-5.0516,-5.055,-5.0609,-5.0637,-5.0672,-5.0722,-5.0734,-5.0786,-5.0842,-5.0834,-5.0902,-5.0933,-5.0997,-5.1018,-5.107,-5.1043,-5.107,-5.1076,-5.1083,-5.109,-5.0902,-5.1079,-5.1079,-5.1079,-5.1078,-5.1078,0,-5.0642,-5.0662,-5.0717,-5.0771,-5.0817,-5.0789,-5.0829,-5.0869,-5.093,-5.0962,-5.1008,-5.1078,-5.1132,-5.1147,-5.1199,-5.1238,-5.1227,-5.1252,-5.1248,-5.1252,-5.1112,-5.109,-5.126,-5.126,-5.126,-5.126,-5.1259,-5.1259,-5.0741,-5.0829,-5.0831,-5.0932,-5.095,-5.1019,-5.1043,-5.1075,-5.1101,-5.118,-5.1226,-5.1236,-5.126,-5.1314,-5.1362,-5.1365,-5.1384,-5.1414,-5.1412,-5.128,-5.1262,-5.1245,-5.1224,-5.1419,-5.1419,-5.1547,-5.1548,-5.1549]}]]